[Iaude] MPEC F108: 2019 FP [a=1.67,e=0.49,i=8.5,H=26.2]

mpec at mpcdb1.cfa.harvard.edu mpec at mpcdb1.cfa.harvard.edu
Wed Mar 27 10:41:18 EDT 2019


M.P.E.C. 2019-F108                               Issued 2019 Mar. 27, 14:38 UT
 
     The Minor Planet Electronic Circulars contain information on unusual
         minor planets and routine data on comets.  They are published
    on behalf of Division F of the International Astronomical Union by the
          Minor Planet Center, Smithsonian Astrophysical Observatory,
                          Cambridge, MA 02138, U.S.A.

             Prepared using the Tamkin Foundation Computer Network

                              MPC at CFA.HARVARD.EDU
            URL https://www.minorplanetcenter.net/    ISSN 1523-6714


                                    2019 FP
 
Observations:
     K19F00P* C2019 03 25.27263511 26 43.05 -02 05 58.8          18.53gUEF108I41
     K19F00P  C2019 03 25.27298211 26 43.31 -02 06 11.5          18.53gUEF108I41
     K19F00P  C2019 03 25.31421611 27 27.68 -02 31 14.5          17.99RUEF108I41
     K19F00P  C2019 03 25.31456211 27 28.03 -02 31 25.9          17.99RUEF108I41
     K19F00P KC2019 03 26.06600311 39 45.42 -08 31 22.2          18.5 GVEF108J95
     K19F00P KC2019 03 26.06720511 39 46.28 -08 31 48.3          18.4 GVEF108J95
     K19F00P KC2019 03 26.06837311 39 47.10 -08 32 15.5          18.7 GVEF108J95
     K19F00P KC2019 03 26.07121611 39 49.15 -08 33 19.5          18.5 GVEF108J95
     K19F00P KC2019 03 26.07336511 39 50.67 -08 34 07.5          18.1 GVEF108J95
     K19F00P KC2019 03 26.13536 11 41 00.26 -08 56 11.6          18.2 RqEF108H36
     K19F00P KC2019 03 26.13781 11 41 01.91 -08 57 06.0          17.9 RqEF108H36
     K19F00P KC2019 03 26.14025 11 41 03.56 -08 57 58.9          18.1 RqEF108H36
     K19F00P KC2019 03 26.14270 11 41 05.15 -08 58 53.0          18.3 RqEF108H36
     K19F00P  C2019 03 26.26189 11 42 24.94 -09 40 22.0          18.2 GVEF108I52
     K19F00P  C2019 03 26.26219 11 42 25.15 -09 40 28.6          18.4 GVEF108I52
     K19F00P  C2019 03 26.26249 11 42 25.32 -09 40 34.6          18.4 GVEF108I52
     K19F00P  C2019 03 26.26279 11 42 25.49 -09 40 40.9          18.3 GVEF108I52
     K19F00P KC2019 03 26.28256711 42 29.67 -09 47 49.7          18.8 VuEF108H21
     K19F00P KC2019 03 26.28408011 42 30.59 -09 48 19.9          18.8 VuEF108H21
     K19F00P KC2019 03 26.28559411 42 31.50 -09 48 50.2          18.7 VuEF108H21
     K19F00P KC2019 03 26.28710911 42 32.42 -09 49 20.5          18.8 VuEF108H21
     K19F00P KC2019 03 26.28837111 42 33.18 -09 49 45.8          18.7 VuEF108H21
     K19F00P  C2019 03 26.53357 11 45 33.56 -11 06 26.6          19.2 RrEF108P93
     K19F00P  C2019 03 26.53622 11 45 34.95 -11 07 14.1          19.0 RrEF108P93
     K19F00P  C2019 03 26.53887 11 45 36.36 -11 08 01.1          19.1 RrEF108P93
     K19F00P KC2019 03 26.86273 11 48 43.37 -12 36 39.4          18.8 RoEF108K88
     K19F00P KC2019 03 26.86513 11 48 44.45 -12 37 15.9          18.8 RoEF108K88
     K19F00P KC2019 03 26.86754 11 48 45.57 -12 37 52.4          19.1 RoEF108K88
     K19F00P KC2019 03 26.91441511 49 11.81 -12 49 16.8          19.0 VqEF108I93
     K19F00P KC2019 03 26.91813611 49 13.42 -12 50 11.3          19.1 VqEF108I93
     K19F00P KC2019 03 26.92201911 49 15.15 -12 51 08.6          19.0 VqEF108I93
     K19F00P KC2019 03 26.92382 11 49 16.28 -12 51 33.0          18.8 GVEF108958
     K19F00P KC2019 03 26.93261 11 49 20.13 -12 53 42.1          18.8 GVEF108958
     K19F00P KC2019 03 26.95047 11 49 27.88 -12 58 01.8          19.0 GVEF108958
     K19F00P KC2019 03 26.96016 11 49 31.50 -13 00 16.1          19.3 RVEF108B74
     K19F00P KC2019 03 26.96240 11 49 32.49 -13 00 47.9          19.3 RVEF108B74
     K19F00P KC2019 03 26.96424 11 49 33.31 -13 01 14.4          19.4 RVEF108B74
     K19F00P KC2019 03 27.25204911 51 50.65 -14 05 29.6          19.2 VuEF108H21
     K19F00P KC2019 03 27.25420411 51 51.45 -14 05 56.8          19.3 VuEF108H21
     K19F00P KC2019 03 27.25771911 51 52.76 -14 06 40.8          19.5 VuEF108H21
 
Observer details:
958 Observatoire de Dax.  Observers P. Dupouy, J. B. de Vanssay.  Measurer
    P. Dupouy.  0.43-m f/2.7 reflector + CCD.
B74 Santa Maria de Montmagastrell.  Observer J. M. Bosch.  0.4-m f/1.2
    Schmidt-Cassegrain + CCD.
H21 Astronomical Research Observatory, Westfield.  Observer R. Holmes.
    Measurers S. Foglia, L. Buzzi, T. Linder, R. Holmes.  0.76-m f/3.0
    astrograph + CCD.
H36 Sandlot Observatory, Scranton.  Observer G. Hug.  0.56-m reflector + CCD.
I41 Palomar Mountain--ZTF.  Observers Q.-Z. Ye, Z. T. F. Collaboration.
    Measurers D. A. Duev, H.-W. Lin, A. A. Mahabal, F. J. Masci, D. Streaks,
    Q.-Z. Ye.  1.2-m f/2.4 Schmidt.
I52 Steward Observatory, Mt. Lemmon Station.  Observer G. J. Leonard.
    Measurers B. M. Africano, E. J. Christensen, G. A. Farneth, D. C. Fuls,
    A. R. Gibbs, A. D. Grauer, H. Groeller, R. A. Kowalski, S. M. Larson,
    G. J. Leonard, T. A. Pruyne, R. L. Seaman, F. C. Shelly.  1.0-m reflector
    + CCD.
I93 St Pardon de Conques.  Observer F. Losse.  0.40-m f/3.7 reflector + CCD.
J95 Great Shefford.  Observer P. Birtwhistle.  0.41-m f/6.3
    Schmidt-Cassegrain + CCD.
K88 GINOP-KHK, Piszkesteto.  Observer K. Sarneczky.  0.60-m Schmidt + CCD.
P93 Space Tracking and Communications Center, JAXA.  Observers K. Nishiyama,
    S. Okumura.  1.0-m f/3.0 reflector + CCD.
 
Orbital elements:
2019 FP                                                  Earth MOID = 0.0062 AU
Epoch 2019 Apr. 27.0 TT = JDT 2458600.5                 MPC
M  34.63923              (2000.0)            P               Q
n   0.45493445     Peri.  122.03003     -0.57715108     -0.81659432
a   1.6743137      Node     3.25742     +0.69062273     -0.49354691
e   0.4892827      Incl.    8.48854     +0.43581749     -0.29930781
P   2.17           H   26.2           G   0.15           U   7
Residuals in seconds of arc
190325 I41  1.5+  0.2+    190326 I52  0.3-  0.1-    190326 I93  0.1-  0.1-
190325 I41  0.3-  0.3+    190326 I52  0.4-  0.0     190326 I93  0.7-  0.4+
190325 I41  0.3+  0.4-    190326 I52  0.5-  0.2-    190326 I93  0.5-  0.3+
190325 I41  0.0   0.6+    190326 H21  0.0   0.1+    190326 958  0.2+  0.5-
190326 J95  0.2-  0.3-    190326 H21  0.1+  0.2+    190326 958  0.2+  0.5-
190326 J95  0.1-  0.7+    190326 H21  0.0   0.2+    190326 958  0.4+  0.2-
190326 J95  0.3-  0.2-    190326 H21  0.1+  0.2+    190326 B74  0.0   0.2-
190326 J95  0.2+  0.2-    190326 H21  0.1+  0.2+    190326 B74  0.6+  0.2+
190326 J95  0.1+  0.1+    190326 P93  0.1+  0.1+    190326 B74  1.2+  0.1+
190326 H36  0.5-  0.8-    190326 P93  0.1+  0.2-    190327 H21  0.1-  0.4+
190326 H36  0.3-  1.3-    190326 P93  0.6+  0.0     190327 H21  0.0   0.2+
190326 H36  0.1+  0.5-    190326 K88  0.4+  0.5+    190327 H21  0.2+  0.1+
190326 H36  0.4-  0.9-    190326 K88  0.0   0.3+
190326 I52  0.8-  0.3+    190326 K88  0.3+  0.2+

Ephemeris:
2019 FP                  a,e,i = 1.67, 0.49, 8                   q = 0.8551
Date    TT    R. A. (2000) Decl.     Delta      r     Elong.  Phase     V
2019 02 25    00 28 54.2 +29 08 44   0.1851  0.8766    47.9   123.0    27.3
...
2019 03 12    00 45 42.5 +34 42 10   0.07774 0.9377    42.6   134.2    26.7
...
2019 03 20    01 43 00.0 +48 24 31   0.02326 0.9822    54.1   124.8    23.2
...
2019 03 26    11 38 59.5 -08 00 06   0.02247 1.0194   168.6    11.1    18.7
2019 03 27    11 49 49.9 -13 05 24   0.02896 1.0258   166.7    12.9    19.3
2019 03 28    11 56 53.4 -16 16 19   0.03565 1.0323   164.8    14.7    19.9
...
2019 04 03    12 13 58.8 -23 13 46   0.07735 1.0727   160.1    18.4    21.7
...
2019 04 11    12 21 18.1 -25 11 47   0.1357  1.1292   158.4    19.0    23.1
...
2019 04 26    12 30 15.3 -25 20 38   0.2554  1.2395   153.3    21.4    24.7

A. U. Tomatic                (C) Copyright 2019 MPC           M.P.E.C. 2019-F108



More information about the Iaude mailing list